Overview Statistics Trail Chart Weather Telemetry Raw packets
 

This is the latest recevied weather packets stored in our database for station/object K4KMJ. If no packets are shown the sender has not sent any weather packets the latest 10 day(s).

<< 29 30 31 32 33 34 35 >>
Time Temp. Humidity Pressure Rain* Wind** Luminosity Snow
1788469531 27.78° C 97% 1015.5 hPa 0 mm - 129 W/m² -
1788469227 27.78° C 97% 1015.2 hPa 0 mm - 130 W/m² -
1788468926 27.78° C 97% 1015.2 hPa 0 mm - 130 W/m² -
1788468620 27.78° C 96% 1015.2 hPa 0 mm - 128 W/m² -
1788468316 27.78° C 96% 1015.2 hPa 0 mm - 127 W/m² -
1788468012 27.78° C 97% 1015.4 hPa 0 mm - 128 W/m² -
1788467707 27.78° C 96% 1015.4 hPa 0 mm - 131 W/m² -
1788467407 27.78° C 96% 1015.4 hPa 0 mm - 131 W/m² -
1788467103 27.78° C 96% 1015.6 hPa 0 mm - 130 W/m² -
1788466797 27.78° C 96% 1015.8 hPa 0 mm - 146 W/m² -
1788466492 27.78° C 96% 1015.7 hPa 0 mm - 153 W/m² -
1788466191 27.78° C 96% 1015.8 hPa 0 mm - 154 W/m² -
1788465887 27.78° C 96% 1015.8 hPa 0 mm - 152 W/m² -
1788465581 27.78° C 96% 1015.8 hPa 0 mm - 153 W/m² -
1788465278 27.78° C 96% 1016 hPa 0 mm - 152 W/m² -
1788464972 27.78° C 96% 1016 hPa 0 mm - 148 W/m² -
1788464668 27.78° C 96% 1016.2 hPa 0 mm - 142 W/m² -
1788464363 27.78° C 96% 1016.2 hPa 0 mm - 137 W/m² -
1788464059 27.78° C 97% 1016.1 hPa 0 mm - 131 W/m² -
1788463754 27.78° C 96% 1016.2 hPa 0 mm - 126 W/m² -
1788463451 27.22° C 96% 1016.5 hPa 0 mm - 123 W/m² -
1788463146 27.78° C 97% 1016.4 hPa 0 mm - 118 W/m² -
1788462842 27.78° C 97% 1016.4 hPa 0 mm - 107 W/m² -
1788462541 27.78° C 97% 1016.3 hPa 0 mm - 133 W/m² -
1788462235 27.78° C 96% 1016.5 hPa 0 mm - 137 W/m² -

* Rain latest hour (hover to see other rain measurements)
** Current wind speed in m/s (hover to see current wind gust speed)